Time,TemperatureF,DewpointF,PressureIn,WindDirection,WindDirectionDegrees,WindSpeedMPH,WindSpeedGustMPH,Humidity,HourlyPrecipIn,Conditions,Clouds,dailyrainin,SoftwareType,DateUTC
2013-02-21 00:00:00,54.0,40.0,30.00,NNW,341,0.0,6.0,58,0.00,,,0.00,,2013-02-20 22:00:00,
2013-02-21 00:01:00,54.0,40.0,30.00,NNW,347,2.0,6.0,58,0.00,,,0.00,,2013-02-20 22:01:00,
2013-02-21 00:11:00,54.0,40.0,30.00,NNW,341,0.0,6.0,58,0.00,,,0.00,,2013-02-20 22:11:00,
2013-02-21 00:21:00,54.0,40.0,30.00,NNW,341,0.0,6.0,58,0.00,,,0.00,,2013-02-20 22:21:00,
2013-02-21 00:31:00,54.0,40.0,30.00,NNW,341,0.0,6.0,58,0.00,,,0.00,,2013-02-20 22:31:00,
2013-02-21 00:43:00,54.0,40.0,30.00,NNW,341,0.0,6.0,58,0.00,,,0.00,,2013-02-20 22:43:00,
2013-02-21 00:51:00,54.0,40.0,30.00,NNW,341,0.0,6.0,58,0.00,,,0.00,,2013-02-20 22:51:00,
2013-02-21 01:12:00,54.0,40.0,30.00,NNW,342,3.0,6.0,60,0.00,,,0.00,,2013-02-20 23:12:00,
2013-02-21 01:22:00,54.0,40.0,30.00,NNW,342,3.0,6.0,60,0.00,,,0.00,,2013-02-20 23:22:00,
2013-02-21 01:30:00,53.0,39.0,30.00,NNW,341,1.0,5.0,60,0.00,,,0.00,,2013-02-20 23:30:00,
2013-02-21 01:32:00,54.0,40.0,30.00,NNW,342,3.0,6.0,60,0.00,,,0.00,,2013-02-20 23:32:00,
2013-02-21 01:42:00,54.0,40.0,30.00,NNW,342,3.0,6.0,60,0.00,,,0.00,,2013-02-20 23:42:00,
2013-02-21 01:52:00,53.0,39.0,30.00,NNW,341,1.0,5.0,60,0.00,,,0.00,,2013-02-20 23:52:00,
2013-02-21 02:02:00,53.0,39.0,30.00,NNW,341,1.0,5.0,60,0.00,,,0.00,,2013-02-21 00:02:00,
2013-02-21 02:11:00,53.0,39.0,30.00,NNW,341,1.0,5.0,60,0.00,,,0.00,,2013-02-21 00:11:00,
2013-02-21 02:21:00,53.0,39.0,30.00,NNW,341,1.0,5.0,60,0.00,,,0.00,,2013-02-21 00:21:00,
2013-02-21 11:42:00,54.0,43.0,29.97,West,259,0.0,5.0,67,0.00,,,0.00,,2013-02-21 09:42:00,
2013-02-21 11:52:00,54.0,43.0,29.97,West,259,0.0,5.0,67,0.00,,,0.00,,2013-02-21 09:52:00,
2013-02-21 12:01:00,54.0,43.0,29.97,West,259,0.0,5.0,67,0.00,,,0.00,,2013-02-21 10:01:00,
2013-02-21 12:11:00,54.0,43.0,29.97,West,259,0.0,5.0,67,0.00,,,0.00,,2013-02-21 10:11:00,
2013-02-21 12:21:00,54.0,43.0,29.97,WNW,288,3.0,5.0,67,0.00,,,0.00,,2013-02-21 10:21:00,
2013-02-21 12:30:00,54.0,44.0,29.94,WNW,287,0.0,5.0,70,0.00,,,0.00,,2013-02-21 10:30:00,
2013-02-21 12:31:00,54.0,43.0,29.97,WNW,288,3.0,5.0,67,0.00,,,0.00,,2013-02-21 10:31:00,
2013-02-21 12:41:00,54.0,43.0,29.97,WNW,288,3.0,5.0,67,0.00,,,0.00,,2013-02-21 10:41:00,
2013-02-21 12:51:00,54.0,44.0,29.94,WNW,287,0.0,5.0,70,0.00,,,0.00,,2013-02-21 10:51:00,
2013-02-21 13:00:00,54.0,44.0,29.94,WNW,287,0.0,5.0,70,0.00,,,0.00,,2013-02-21 11:00:00,
2013-02-21 13:11:00,54.0,44.0,29.94,WNW,287,0.0,5.0,70,0.00,,,0.00,,2013-02-21 11:11:00,
2013-02-21 13:20:00,54.0,44.0,29.94,WNW,287,0.0,5.0,70,0.00,,,0.00,,2013-02-21 11:20:00,
2013-02-21 13:52:00,56.0,46.0,29.91,North,10,0.0,5.0,70,0.00,,,0.00,,2013-02-21 11:52:00,
2013-02-21 14:01:00,56.0,46.0,29.91,North,10,0.0,5.0,70,0.00,,,0.00,,2013-02-21 12:01:00,
2013-02-21 14:11:00,56.0,46.0,29.91,North,10,0.0,5.0,70,0.00,,,0.00,,2013-02-21 12:11:00,
2013-02-21 14:21:00,57.0,45.0,29.88,NNE,15,1.0,3.0,65,0.00,,,0.00,,2013-02-21 12:21:00,
2013-02-21 14:32:00,57.0,45.0,29.88,NNE,15,1.0,3.0,65,0.00,,,0.00,,2013-02-21 12:32:00,
2013-02-21 14:43:00,57.0,44.0,29.88,NNW,341,0.0,6.0,61,0.00,,,0.00,,2013-02-21 12:43:00,
2013-02-21 14:52:00,57.0,44.0,29.88,NNW,341,0.0,6.0,61,0.00,,,0.00,,2013-02-21 12:52:00,
2013-02-21 15:00:00,57.0,42.0,29.88,NW,319,0.0,5.0,58,0.00,,,0.00,,2013-02-21 13:00:00,
2013-02-21 15:01:00,57.0,44.0,29.88,NNW,341,0.0,6.0,61,0.00,,,0.00,,2013-02-21 13:01:00,
2013-02-21 15:12:00,57.0,44.0,29.88,NNW,341,0.0,6.0,61,0.00,,,0.00,,2013-02-21 13:12:00,
2013-02-21 15:22:00,57.0,42.0,29.88,NW,319,0.0,5.0,58,0.00,,,0.00,,2013-02-21 13:22:00,
2013-02-21 15:31:00,57.0,42.0,29.88,NW,319,0.0,5.0,58,0.00,,,0.00,,2013-02-21 13:31:00,
2013-02-21 15:42:00,57.0,42.0,29.88,NW,319,0.0,5.0,58,0.00,,,0.00,,2013-02-21 13:42:00,
2013-02-21 15:52:00,57.0,42.0,29.88,NW,319,0.0,5.0,58,0.00,,,0.00,,2013-02-21 13:52:00,
2013-02-21 16:22:00,56.0,42.0,29.85,WSW,238,3.0,6.0,59,0.00,,,0.00,,2013-02-21 14:22:00,
2013-02-21 16:30:00,56.0,42.0,29.85,SE,131,0.0,5.0,60,0.00,,,0.00,,2013-02-21 14:30:00,
2013-02-21 16:32:00,56.0,42.0,29.85,WSW,238,3.0,6.0,59,0.00,,,0.00,,2013-02-21 14:32:00,
2013-02-21 16:42:00,56.0,42.0,29.85,SE,131,0.0,5.0,60,0.00,,,0.00,,2013-02-21 14:42:00,
2013-02-21 16:52:00,56.0,42.0,29.85,SE,131,0.0,5.0,60,0.00,,,0.00,,2013-02-21 14:52:00,
2013-02-21 17:01:00,56.0,42.0,29.85,SE,131,0.0,5.0,60,0.00,,,0.00,,2013-02-21 15:01:00,
2013-02-21 17:12:00,56.0,42.0,29.85,SE,131,0.0,5.0,60,0.00,,,0.00,,2013-02-21 15:12:00,
2013-02-21 17:21:00,56.0,42.0,29.85,SE,131,0.0,5.0,60,0.00,,,0.00,,2013-02-21 15:21:00,
2013-02-21 17:52:00,56.0,44.0,29.83,ESE,119,3.0,9.0,63,0.00,,,0.00,,2013-02-21 15:52:00,
2013-02-21 18:01:00,56.0,44.0,29.83,ESE,119,3.0,9.0,63,0.00,,,0.00,,2013-02-21 16:01:00,
2013-02-21 18:12:00,55.0,42.0,29.83,North,349,7.0,12.0,62,0.00,,,0.00,,2013-02-21 16:12:00,
2013-02-21 18:21:00,55.0,42.0,29.83,North,349,7.0,12.0,62,0.00,,,0.00,,2013-02-21 16:21:00,
2013-02-21 18:31:00,55.0,42.0,29.83,North,349,7.0,12.0,62,0.00,,,0.00,,2013-02-21 16:31:00,
2013-02-21 18:42:00,55.0,43.0,29.80,NNW,340,5.0,9.0,63,0.00,,,0.00,,2013-02-21 16:42:00,
2013-02-21 18:52:00,55.0,43.0,29.80,NNW,340,5.0,9.0,63,0.00,,,0.00,,2013-02-21 16:52:00,
2013-02-21 19:01:00,55.0,43.0,29.80,NNW,340,5.0,9.0,63,0.00,,,0.00,,2013-02-21 17:01:00,
2013-02-21 19:11:00,55.0,43.0,29.80,NNE,31,3.0,10.0,63,0.00,,,0.00,,2013-02-21 17:11:00,
2013-02-21 19:21:00,55.0,43.0,29.80,NNE,31,3.0,10.0,63,0.00,,,0.00,,2013-02-21 17:21:00,
2013-02-21 19:30:00,55.0,43.0,29.80,North,349,5.0,9.0,64,0.00,,,0.00,,2013-02-21 17:30:00,
2013-02-21 19:32:00,55.0,43.0,29.80,NNE,31,3.0,10.0,63,0.00,,,0.00,,2013-02-21 17:32:00,
2013-02-21 19:42:00,55.0,43.0,29.80,NNE,31,3.0,10.0,63,0.00,,,0.00,,2013-02-21 17:42:00,
2013-02-21 19:52:00,55.0,43.0,29.80,North,349,5.0,9.0,64,0.00,,,0.00,,2013-02-21 17:52:00,
2013-02-21 20:01:00,55.0,43.0,29.80,North,349,5.0,9.0,64,0.00,,,0.00,,2013-02-21 18:01:00,
2013-02-21 20:11:00,55.0,43.0,29.80,North,349,5.0,9.0,64,0.00,,,0.00,,2013-02-21 18:11:00,
2013-02-21 20:21:00,55.0,43.0,29.80,North,349,5.0,9.0,64,0.00,,,0.00,,2013-02-21 18:21:00,
2013-02-21 20:52:00,55.0,44.0,29.77,NNW,334,7.0,13.0,66,0.00,,,0.00,,2013-02-21 18:52:00,
2013-02-21 21:00:00,56.0,45.0,29.77,NNE,28,8.0,14.0,66,0.00,,,0.00,,2013-02-21 19:00:00,
2013-02-21 21:01:00,55.0,44.0,29.77,NNW,334,7.0,13.0,66,0.00,,,0.00,,2013-02-21 19:01:00,
2013-02-21 21:11:00,55.0,44.0,29.77,NNW,334,7.0,13.0,66,0.00,,,0.00,,2013-02-21 19:11:00,
2013-02-21 21:21:00,56.0,45.0,29.77,NNE,28,8.0,14.0,66,0.00,,,0.00,,2013-02-21 19:21:00,
2013-02-21 21:31:00,56.0,45.0,29.77,NNE,28,8.0,14.0,66,0.00,,,0.00,,2013-02-21 19:31:00,
2013-02-21 21:42:00,56.0,45.0,29.77,NNE,28,8.0,14.0,66,0.00,,,0.00,,2013-02-21 19:42:00,
2013-02-21 21:52:00,56.0,45.0,29.77,NNE,28,8.0,14.0,66,0.00,,,0.00,,2013-02-21 19:52:00,
2013-02-21 22:11:00,55.0,45.0,29.74,NNW,333,0.0,18.0,69,0.00,,,0.00,,2013-02-21 20:11:00,
2013-02-21 22:21:00,55.0,45.0,29.74,NNW,333,0.0,18.0,69,0.00,,,0.00,,2013-02-21 20:21:00,
2013-02-21 22:32:00,55.0,45.0,29.74,NNW,333,0.0,18.0,69,0.00,,,0.00,,2013-02-21 20:32:00,
2013-02-21 22:42:00,55.0,45.0,29.74,NNW,333,0.0,18.0,69,0.00,,,0.00,,2013-02-21 20:42:00,
2013-02-21 22:52:00,56.0,47.0,29.74,NNE,17,8.0,15.0,72,0.00,,,0.00,,2013-02-21 20:52:00,
2013-02-21 23:02:00,56.0,47.0,29.74,NNE,17,8.0,15.0,72,0.00,,,0.00,,2013-02-21 21:02:00,
2013-02-21 23:11:00,56.0,49.0,29.71,NNE,20,5.0,15.0,76,0.00,,,0.00,,2013-02-21 21:11:00,
2013-02-21 23:21:00,56.0,49.0,29.71,NNE,20,5.0,15.0,76,0.00,,,0.00,,2013-02-21 21:21:00,
2013-02-21 23:31:00,56.0,49.0,29.71,NNE,20,5.0,15.0,76,0.00,,,0.00,,2013-02-21 21:31:00,
2013-02-21 23:42:00,56.0,50.0,29.68,NNE,13,8.0,20.0,79,0.00,,,0.00,,2013-02-21 21:42:00,
2013-02-21 23:52:00,56.0,50.0,29.68,NNE,13,8.0,20.0,79,0.00,,,0.00,,2013-02-21 21:52:00,